GW2160 Weather Reports


time (UTC)temp
C
wind
direction
speed
KPH
gust
KPH
rain 1hr
cm
rain 24hr
cm
rain mn
cm
humidity
%
barometer
mb
20260507065022 11 152 1.6 12.9 0.00 0.00 0.00 83 1020.6
20260507064546 11 151 3.2 12.9 0.00 0.00 0.00 82 1020.5
20260507064022 11 135 3.2 6.4 0.00 0.00 0.00 82 1020.5
20260507063523 12 150 3.2 8.0 0.00 0.00 0.00 82 1020.5
20260507063039 12 136 3.2 8.0 0.00 0.00 0.00 82 1020.5
20260507062522 12 211 1.6 9.7 0.00 0.00 0.00 82 1020.6
20260507062024 12 135 1.6 9.7 0.00 0.00 0.00 83 1020.5
20260507061538 12 211 4.8 8.0 0.00 0.00 0.00 83 1020.5
20260507061025 12 160 3.2 9.7 0.00 0.00 0.00 83 1020.6
20260507060525 12 220 4.8 9.7 0.00 0.00 0.00 83 1020.5
20260507060037 12 146 4.8 9.7 0.00 0.00 0.00 83 1020.5
20260507055523 12 152 1.6 9.7 0.00 0.00 0.00 84 1020.5
20260507055026 12 208 3.2 9.7 0.00 0.00 0.00 84 1020.6
20260507054542 12 160 3.2 9.7 0.00 0.00 0.00 83 1020.6
20260507054028 12 133 3.2 8.0 0.00 0.00 0.00 83 1020.5
20260507053527 12 169 4.8 12.9 0.00 0.00 0.00 83 1020.6
20260507053040 12 129 4.8 12.9 0.00 0.00 0.00 84 1020.5
20260507052526 12 199 4.8 12.9 0.00 0.00 0.00 83 1020.5
20260507052027 12 229 4.8 9.7 0.00 0.00 0.00 84 1020.4
20260507051540 12 212 4.8 9.7 0.00 0.00 0.00 84 1020.5
20260507051024 12 143 4.8 9.7 0.00 0.00 0.00 84 1020.6
20260507050525 12 207 4.8 9.7 0.00 0.00 0.00 84 1020.6
20260507050039 12 193 4.8 9.7 0.00 0.00 0.00 83 1020.5
20260507045526 12 142 4.8 9.7 0.00 0.00 0.00 83 1020.6
20260507045024 12 222 3.2 8.0 0.00 0.00 0.00 83 1020.6
20260507044548 12 144 3.2 8.0 0.00 0.00 0.00 83 1020.5
20260507044027 12 184 1.6 8.0 0.00 0.00 0.00 83 1020.5
20260507043524 12 212 3.2 11.3 0.00 0.00 0.00 83 1020.5
20260507043042 12 173 3.2 11.3 0.00 0.00 0.00 83 1020.5
20260507042526 12 168 3.2 9.7 0.00 0.00 0.00 83 1020.5
20260507042028 12 226 4.8 11.3 0.00 0.00 0.00 83 1020.4
20260507041545 12 175 1.6 11.3 0.00 0.00 0.00 83 1020.4
20260507041027 12 146 3.2 11.3 0.00 0.00 0.00 83 1020.4
20260507040527 12 144 4.8 11.3 0.00 0.00 0.00 83 1020.3
20260507040044 12 195 3.2 8.0 0.00 0.00 0.00 83 1020.3
20260507035529 12 178 3.2 8.0 0.00 0.00 0.00 83 1020.3
20260507035026 12 145 1.6 8.0 0.00 0.00 0.00 83 1020.3
20260507034543 12 148 3.2 8.0 0.00 0.00 0.00 83 1020.3
20260507034027 12 217 1.6 6.4 0.00 0.00 0.00 83 1020.2
20260507033524 12 160 0.0 9.7 0.00 0.00 0.00 83 1020.2
20260507033058 12 160 1.6 9.7 0.00 0.00 0.00 83 1020.3
20260507032527 12 201 1.6 6.4 0.00 0.00 0.00 83 1020.2
20260507032033 12 153 3.2 6.4 0.00 0.00 0.00 82 1020.1
20260507031553 12 165 1.6 4.8 0.00 0.00 0.00 83 1020.1
20260507031024 13 212 1.6 4.8 0.00 0.00 0.00 83 1020.1
20260507030527 13 211 0.0 4.8 0.00 0.00 0.00 82 1020.1
20260507030101 13 144 1.6 6.4 0.00 0.00 0.00 82 1020.0
20260507025526 13 143 0.0 6.4 0.00 0.00 0.00 81 1020.0
20260507025028 13 143 3.2 8.0 0.00 0.00 0.00 81 1020.0
20260507024555 13 134 1.6 12.9 0.00 0.00 0.00 81 1020.0
20260507024025 13 202 3.2 12.9 0.00 0.00 0.00 81 1019.9
20260507023524 13 203 4.8 11.3 0.00 0.00 0.00 81 1019.8
20260507023036 13 139 4.8 11.3 0.00 0.00 0.00 80 1019.9
20260507022524 13 214 4.8 11.3 0.00 0.00 0.00 80 1019.8
20260507022024 13 214 4.8 14.5 0.00 0.00 0.00 81 1019.8
20260507021550 13 139 6.4 14.5 0.00 0.00 0.00 80 1019.8
20260507021026 13 163 6.4 16.1 0.00 0.00 0.00 80 1019.8
20260507020524 13 134 6.4 19.3 0.00 0.00 0.00 80 1019.9
20260507020053 13 212 8.0 19.3 0.00 0.00 0.00 80 1019.8
20260507015526 13 201 6.4 14.5 0.00 0.00 0.00 80 1019.9
20260507015026 13 159 6.4 22.5 0.00 0.00 0.00 80 1019.9
20260507014549 13 107 8.0 22.5 0.00 0.00 0.00 81 1019.9
20260507014024 13 169 9.7 22.5 0.00 0.00 0.00 79 1019.9
20260507013524 13 174 8.0 16.1 0.00 0.00 0.00 79 1019.8
20260507013040 13 183 9.7 16.1 0.00 0.00 0.00 79 1019.9
20260507012527 13 174 6.4 14.5 0.00 0.00 0.00 80 1019.8
20260507012026 13 190 4.8 14.5 0.00 0.00 0.00 80 1019.9
20260507011542 13 205 4.8 14.5 0.00 0.00 0.00 80 1019.9
20260507011028 13 150 8.0 14.5 0.00 0.00 0.00 80 1019.9
20260507010526 13 165 8.0 14.5 0.00 0.00 0.00 80 1019.9
20260507010045 13 212 6.4 14.5 0.00 0.00 0.00 79 1019.9
20260507005528 14 184 4.8 14.5 0.00 0.00 0.00 79 1019.9
20260507005030 14 134 3.2 14.5 0.00 0.00 0.00 79 1019.8
20260507004539 14 214 6.4 14.5 0.00 0.00 0.00 78 1019.9
20260507004025 14 165 8.0 14.5 0.00 0.00 0.00 77 1019.9
20260507003525 14 198 4.8 14.5 0.00 0.00 0.00 78 1019.8
20260507003039 14 170 6.4 16.1 0.00 0.00 0.00 79 1019.9
20260507002526 14 229 8.0 16.1 0.00 0.00 0.00 78 1019.8
20260507002025 14 193 8.0 16.1 0.00 0.00 0.00 77 1019.8
20260507001537 14 134 8.0 16.1 0.00 0.00 0.00 78 1019.7
20260507001024 14 134 6.4 16.1 0.00 0.00 0.00 78 1019.7
20260507000525 14 198 8.0 16.1 0.00 0.00 0.00 79 1019.8
20260507000044 14 214 8.0 16.1 0.00 0.00 0.00 78 1019.8
20260506235526 14 200 6.4 16.1 0.00 0.00 0.00 78 1019.8
20260506235024 14 172 9.7 19.3 0.00 0.00 0.00 80 1019.9
20260506234552 14 203 8.0 19.3 0.00 0.00 0.00 79 1019.8
20260506234025 14 150 9.7 19.3 0.00 0.00 0.00 79 1019.9
20260506233524 15 217 11.3 17.7 0.00 0.00 0.00 76 1019.9
20260506233048 15 157 9.7 17.7 0.00 0.00 0.00 76 1019.9
20260506232524 15 155 9.7 17.7 0.00 0.00 0.00 75 1020.0
20260506232024 15 178 11.3 24.1 0.00 0.00 0.00 75 1019.9
20260506231537 15 146 11.3 24.1 0.00 0.00 0.00 77 1019.9
20260506231026 15 201 11.3 24.1 0.00 0.00 0.00 75 1020.0
20260506230526 15 141 14.5 24.1 0.00 0.00 0.00 77 1020.1
20260506230038 15 131 9.7 22.5 0.00 0.00 0.00 76 1020.0
20260506225525 14 172 8.0 22.5 0.00 0.00 0.00 76 1020.0
20260506225027 14 191 9.7 19.3 0.00 0.00 0.00 76 1020.1
20260506224543 14 214 9.7 20.9 0.00 0.00 0.00 76 1020.0
20260506224025 14 167 11.3 20.9 0.00 0.00 0.00 76 1020.1
20260506223524 14 178 9.7 19.3 0.00 0.00 0.00 77 1020.1
20260506223042 14 123 9.7 20.9 0.00 0.00 0.00 77 1020.0
20260506222524 14 162 9.7 20.9 0.00 0.00 0.00 78 1020.1
20260506222025 14 205 11.3 19.3 0.00 0.00 0.00 79 1020.2
20260506221539 14 193 8.0 20.9 0.00 0.00 0.00 77 1020.2
20260506221024 14 148 12.9 20.9 0.00 0.00 0.00 78 1020.2
20260506220524 14 198 8.0 19.3 0.00 0.00 0.00 78 1020.3
20260506220039 14 207 8.0 19.3 0.00 0.00 0.00 79 1020.2
20260506215524 14 152 8.0 20.9 0.00 0.00 0.00 77 1020.2
20260506215024 13 211 9.7 20.9 0.00 0.00 0.00 78 1020.2
20260506214538 13 193 9.7 20.9 0.00 0.00 0.00 78 1020.2
20260506214027 14 212 9.7 20.9 0.00 0.00 0.00 78 1020.2
20260506213526 14 205 9.7 20.9 0.00 0.00 0.00 78 1020.3
20260506213038 14 154 9.7 19.3 0.00 0.00 0.00 78 1020.3
20260506212524 14 198 11.3 24.1 0.00 0.00 0.00 77 1020.3
20260506212028 13 171 9.7 24.1 0.00 0.00 0.00 78 1020.2
20260506211541 13 233 12.9 24.1 0.00 0.00 0.00 80 1020.3
20260506211025 13 229 11.3 24.1 0.00 0.00 0.00 79 1020.2
20260506210525 13 123 8.0 20.9 0.00 0.00 0.00 79 1020.2
20260506210040 13 153 9.7 20.9 0.00 0.00 0.00 78 1020.3
20260506205528 13 205 11.3 20.9 0.00 0.00 0.00 78 1020.3
20260506205024 13 200 9.7 17.7 0.00 0.00 0.00 78 1020.4
20260506204541 13 208 8.0 19.3 0.00 0.00 0.00 78 1020.3
20260506204024 13 212 11.3 19.3 0.00 0.00 0.00 79 1020.3
20260506203527 13 136 11.3 19.3 0.00 0.00 0.00 78 1020.3
20260506203040 13 184 11.3 19.3 0.00 0.00 0.00 79 1020.2
20260506202525 13 186 9.7 19.3 0.00 0.00 0.00 78 1020.3
20260506202024 13 172 6.4 17.7 0.00 0.00 0.00 78 1020.2
20260506201542 13 172 6.4 14.5 0.00 0.00 0.00 78 1020.3
20260506201023 13 165 6.4 19.3 0.00 0.00 0.00 78 1020.3
20260506200524 13 114 8.0 20.9 0.00 0.00 0.00 79 1020.3
20260506200042 13 214 9.7 20.9 0.00 0.00 0.00 78 1020.3
20260506195529 13 201 11.3 20.9 0.00 0.00 0.00 78 1020.3
20260506195025 13 205 8.0 19.3 0.00 0.00 0.00 78 1020.2
20260506194539 13 143 9.7 19.3 0.00 0.00 0.00 78 1020.2
20260506194025 13 187 6.4 24.1 0.00 0.00 0.00 79 1020.1
20260506193526 13 192 8.0 24.1 0.00 0.00 0.00 79 1020.2
20260506193037 12 109 8.0 19.3 0.00 0.00 0.00 80 1020.2
20260506192527 12 198 8.0 20.9 0.00 0.00 0.00 79 1020.2
20260506192029 12 191 11.3 20.9 0.00 0.00 0.00 80 1020.2
20260506191545 12 186 12.9 20.9 0.00 0.00 0.00 80 1020.1
20260506191023 12 186 8.0 22.5 0.00 0.00 0.00 80 1020.1
20260506190522 12 165 9.7 22.5 0.00 0.00 0.00 79 1020.2
20260506190043 12 238 9.7 22.5 0.00 0.00 0.00 80 1020.1
20260506185525 12 204 11.3 22.5 0.00 0.00 0.00 80 1020.1
20260506185025 12 155 9.7 22.5 0.00 0.00 0.00 79 1020.1
20260506184546 12 153 9.7 20.9 0.00 0.00 0.00 80 1020.1
20260506184026 12 213 8.0 25.7 0.00 0.00 0.00 80 1020.1
20260506183526 12 172 9.7 25.7 0.00 0.00 0.00 80 1020.0
20260506183039 12 158 9.7 17.7 0.00 0.00 0.00 81 1020.0
20260506182525 12 204 8.0 22.5 0.00 0.00 0.00 80 1020.1
20260506182024 12 176 11.3 22.5 0.00 0.00 0.00 80 1020.1
20260506181539 12 150 6.4 22.5 0.00 0.00 0.00 81 1020.1
20260506181027 12 212 11.3 22.5 0.00 0.00 0.00 80 1020.0
20260506180523 12 150 9.7 20.9 0.00 0.00 0.00 81 1020.0
20260506180047 12 191 11.3 22.5 0.00 0.00 0.00 81 1019.9
20260506175525 12 209 11.3 22.5 0.00 0.00 0.00 81 1019.9
20260506175025 12 152 11.3 22.5 0.00 0.00 0.00 81 1019.9
20260506174541 12 139 11.3 20.9 0.00 0.00 0.00 83 1019.9
20260506174030 12 171 9.7 20.9 0.00 0.00 0.00 81 1019.8
20260506173526 12 195 9.7 17.7 0.00 0.00 0.00 81 1019.8
20260506173117 12 250 4.8 16.1 0.00 0.00 0.00 82 1019.7
20260506172525 12 140 6.4 19.3 0.00 0.00 0.00 81 1019.9
20260506172026 12 192 9.7 19.3 0.00 0.00 0.00 82 1019.8
20260506171539 12 168 8.0 19.3 0.00 0.00 0.00 81 1019.8
20260506171026 12 225 8.0 19.3 0.00 0.00 0.00 82 1019.8
20260506170526 12 210 9.7 19.3 0.00 0.00 0.00 82 1019.8
20260506170041 12 246 8.0 17.7 0.00 0.00 0.00 83 1019.8
20260506165525 11 197 6.4 17.7 0.00 0.00 0.00 84 1019.8
20260506165023 11 224 6.4 17.7 0.00 0.00 0.00 84 1019.9
20260506164541 11 179 6.4 14.5 0.00 0.00 0.00 85 1019.8
20260506164027 11 223 4.8 14.5 0.00 0.00 0.00 85 1019.7
20260506163532 11 176 4.8 14.5 0.00 0.00 0.00 86 1019.9
20260506163042 11 212 4.8 11.3 0.00 0.00 0.00 86 1019.7
20260506162524 11 155 6.4 14.5 0.00 0.00 0.00 87 1019.8
20260506162028 11 140 4.8 14.5 0.00 0.00 0.00 88 1019.7
20260506161540 11 160 4.8 16.1 0.00 0.00 0.00 87 1019.7
20260506161024 11 199 6.4 16.1 0.00 0.00 0.00 87 1019.7
20260506160524 11 202 6.4 14.5 0.00 0.00 0.00 89 1019.7
20260506160040 11 150 6.4 14.5 0.00 0.00 0.00 89 1019.6
20260506155524 11 136 6.4 14.5 0.00 0.00 0.00 89 1019.5
20260506155025 11 211 6.4 14.5 0.00 0.00 0.00 90 1019.5
20260506154545 11 160 6.4 12.9 0.00 0.00 0.00 89 1019.5
20260506154024 11 142 4.8 14.5 0.00 0.00 0.00 89 1019.4
20260506153526 11 136 8.0 14.5 0.00 0.00 0.00 88 1019.5
20260506153035 11 141 3.2 14.5 0.00 0.00 0.00 89 1019.5
20260506152524 11 242 8.0 16.1 0.00 0.00 0.00 88 1019.5
20260506152024 11 139 8.0 16.1 0.00 0.00 0.00 88 1019.6
20260506151542 11 201 8.0 14.5 0.00 0.00 0.00 88 1019.5
20260506151027 11 190 6.4 14.5 0.00 0.00 0.00 88 1019.5
20260506150526 11 174 9.7 14.5 0.00 0.00 0.00 88 1019.5
20260506150043 11 184 4.8 14.5 0.00 0.00 0.00 88 1019.5
20260506145525 11 146 6.4 12.9 0.00 0.00 0.00 89 1019.6
20260506145025 11 213 4.8 11.3 0.00 0.00 0.00 88 1019.4
20260506144542 11 240 4.8 12.9 0.00 0.00 0.00 89 1019.3
20260506144024 11 200 6.4 17.7 0.00 0.00 0.00 89 1019.2
20260506143545 11 192 8.0 17.7 0.00 0.00 0.00 90 1019.2
20260506143040 11 164 6.4 16.1 0.00 0.00 0.00 90 1019.3
20260506142523 11 165 6.4 16.1 0.00 0.00 0.00 89 1019.4
20260506142023 11 193 8.0 12.9 0.00 0.00 0.00 89 1019.3
20260506141542 11 162 4.8 11.3 0.00 0.00 0.00 90 1019.1
20260506141027 11 168 6.4 11.3 0.00 0.00 0.00 90 1019.2
20260506140525 11 211 8.0 11.3 0.00 0.00 0.00 90 1019.2
20260506140042 11 171 6.4 11.3 0.00 0.00 0.00 90 1019.1
20260506135523 11 207 3.2 12.9 0.00 0.00 0.00 89 1019.0
20260506135024 11 217 6.4 14.5 0.00 0.00 0.00 90 1019.0
20260506134541 11 210 6.4 14.5 0.00 0.00 0.00 89 1019.0
20260506134025 11 221 6.4 9.7 0.00 0.00 0.00 89 1019.0
20260506133525 11 205 4.8 12.9 0.00 0.00 0.00 89 1018.9
20260506133040 11 137 4.8 12.9 0.00 0.00 0.00 89 1018.9
20260506132528 11 169 6.4 11.3 0.00 0.00 0.00 89 1018.9
20260506132024 11 157 4.8 11.3 0.00 0.00 0.00 89 1018.8
20260506131546 11 162 6.4 12.9 0.00 0.00 0.00 89 1018.9
20260506131024 11 202 4.8 14.5 0.00 0.00 0.00 89 1018.8
20260506130524 11 172 8.0 14.5 0.00 0.00 0.00 89 1018.8
20260506130051 11 209 6.4 12.9 0.00 0.00 0.00 89 1018.9
20260506125525 11 177 4.8 16.1 0.00 0.00 0.00 89 1018.7
20260506125029 11 134 8.0 16.1 0.00 0.00 0.00 89 1018.6
20260506124551 11 131 4.8 11.3 0.00 0.00 0.00 89 1018.2
20260506124024 11 158 4.8 9.7 0.00 0.00 0.00 90 1018.3
20260506123525 11 181 6.4 16.1 0.00 0.00 0.00 90 1018.5
20260506123042 11 169 8.0 16.1 0.00 0.00 0.00 90 1018.5
20260506122525 11 198 6.4 14.5 0.00 0.00 0.00 90 1018.5
20260506122024 11 215 4.8 16.1 0.00 0.00 0.00 89 1018.4
20260506121537 11 170 6.4 16.1 0.00 0.00 0.00 90 1018.5
20260506121024 11 139 8.0 12.9 0.00 0.00 0.00 90 1018.4
20260506120527 11 149 8.0 17.7 0.00 0.00 0.00 89 1018.4
20260506120040 11 230 8.0 17.7 0.00 0.00 0.00 90 1018.4
20260506115526 11 160 9.7 17.7 0.00 0.00 0.00 89 1018.3
20260506115024 11 187 6.4 16.1 0.00 0.00 0.00 90 1018.3
20260506114542 11 154 8.0 16.1 0.00 0.00 0.00 89 1018.4
20260506114024 11 210 6.4 19.3 0.00 0.00 0.00 89 1018.3
20260506113525 11 188 8.0 19.3 0.00 0.00 0.00 89 1018.3
20260506113049 11 226 11.3 19.3 0.00 0.00 0.00 89 1018.0
20260506112525 11 203 8.0 14.5 0.00 0.00 0.00 89 1018.0
20260506112024 11 135 6.4 12.9 0.00 0.00 0.00 89 1017.9
20260506111538 11 162 6.4 12.9 0.00 0.00 0.00 89 1017.9
20260506111024 11 224 8.0 14.5 0.00 0.00 0.00 89 1018.0
20260506110526 11 201 6.4 14.5 0.00 0.00 0.00 89 1018.0
20260506110043 11 203 8.0 14.5 0.00 0.00 0.00 89 1018.0
20260506105524 11 176 6.4 14.5 0.00 0.00 0.00 88 1018.0
20260506105026 11 165 6.4 14.5 0.00 0.00 0.00 89 1018.0
20260506104543 11 150 4.8 14.5 0.00 0.00 0.00 88 1017.9
20260506104024 11 210 8.0 14.5 0.00 0.00 0.00 89 1017.9
20260506103524 11 191 4.8 14.5 0.00 0.00 0.00 89 1017.9
20260506103045 11 155 6.4 14.5 0.00 0.00 0.00 88 1017.9
20260506102524 11 146 8.0 14.5 0.00 0.00 0.00 88 1017.8
20260506102025 11 198 9.7 16.1 0.00 0.00 0.00 88 1017.7
20260506101551 11 219 8.0 16.1 0.00 0.00 0.00 88 1017.7
20260506101024 11 172 9.7 16.1 0.00 0.00 0.00 88 1017.7
20260506100525 11 183 8.0 14.5 0.00 0.00 0.00 87 1017.7
20260506100059 11 210 8.0 14.5 0.00 0.00 0.00 88 1017.7
20260506095525 11 223 6.4 12.9 0.00 0.00 0.00 87 1017.5
20260506095028 11 131 8.0 12.9 0.00 0.00 0.00 88 1017.5
20260506094536 11 203 6.4 12.9 0.00 0.00 0.00 88 1017.5
20260506094026 11 183 8.0 14.5 0.00 0.00 0.00 87 1017.4
20260506093526 11 203 6.4 14.5 0.00 0.00 0.00 87 1017.4
20260506093042 11 204 6.4 14.5 0.00 0.00 0.00 87 1017.4
20260506092523 11 214 8.0 12.9 0.00 0.00 0.00 88 1017.4
20260506092029 11 143 8.0 12.9 0.00 0.00 0.00 88 1017.3
20260506091537 11 179 8.0 12.9 0.00 0.00 0.00 87 1017.4
20260506091028 11 119 8.0 12.9 0.00 0.00 0.00 88 1017.4
20260506090525 11 113 6.4 19.3 0.00 0.00 0.00 87 1017.4
20260506090042 11 192 6.4 19.3 0.00 0.00 0.00 87 1017.2
20260506085526 11 233 4.8 12.9 0.00 0.00 0.00 87 1017.3
20260506085026 12 147 6.4 11.3 0.00 0.00 0.00 88 1017.3
20260506084559 11 213 6.4 12.9 0.00 0.00 0.00 87 1017.4
20260506084023 11 194 6.4 12.9 0.00 0.00 0.00 87 1017.4
20260506083527 11 169 8.0 16.1 0.00 0.00 0.00 88 1017.3
20260506083039 11 171 8.0 16.1 0.00 0.00 0.00 89 1017.1
20260506082526 11 213 4.8 8.0 0.00 0.00 0.00 88 1017.2
20260506082028 11 162 3.2 6.4 0.00 0.00 0.00 88 1017.2
20260506081541 11 167 3.2 8.0 0.00 0.00 0.00 88 1017.1
20260506081027 11 143 3.2 8.0 0.00 0.00 0.00 88 1017.0
20260506080523 11 207 3.2 9.7 0.00 0.00 0.00 88 1017.0
20260506073527 11 141 1.6 6.4 0.00 0.00 0.00 87 1016.8
20260506073045 11 144 1.6 9.7 0.00 0.00 0.00 87 1016.7
20260506072526 11 151 3.2 9.7 0.00 0.00 0.00 87 1016.8
20260506072026 11 112 4.8 9.7 0.00 0.00 0.00 87 1016.6
20260506071537 11 227 4.8 11.3 0.00 0.00 0.00 87 1016.6
20260506071028 12 149 4.8 11.3 0.00 0.00 0.00 87 1016.4
20260506070529 11 226 4.8 11.3 0.00 0.00 0.00 87 1016.5